Lacon, IL

6:28 PM CDT on April 23, 2018 (GMT -0500)
Lacon

Weather History for KC75 - February, 2014

Change the Weather History Date:

Tuesday, February 4, 2014

  Actual Average (KVYS) Record (KVYS)
Temperature  
Mean Temperature 10 °F -  
Max Temperature 19 °F 32 °F 56 °F (1992)
Min Temperature 0 °F 15 °F -15 °F (1979)
Degree Days  
Heating Degree Days 56    
Moisture  
Dew Point 4 °F    
Average Humidity 75    
Maximum Humidity 89    
Minimum Humidity 51    
Precipitation  
Precipitation 0.00 in - - ()
Sea Level Pressure  
Sea Level Pressure 30.31 in    
Wind  
Wind Speed 3 mph (NE)    
Max Wind Speed 13 mph    
Max Gust Speed 17 mph    
Visibility 8 miles    
Events Snow    
Averages and records for this station are not official NWS values.
T = Trace of Precipitation, MM = Missing Value Source: NWS Daily Summary

Daily Weather History Graph

Daily Weather History Graph

Search for Another Location

Airport or City:

Astronomy

Feb. 04, 2014 Rise Set
Actual Time 7:04 AM CST 5:18 PM CST
Civil Twilight 6:35 AM CST 5:47 PM CST
Nautical Twilight 6:03 AM CST 6:19 PM CST
Astronomical Twilight 5:31 AM CST 6:52 PM CST
Moon 9:39 AM CST (2/4) 11:15 PM CST (2/4)
Length of Visible Light 11h 11m
Length of Day
10h 13m
Waxing Crescent, 29% of the Moon is Illuminated
Feb 4
Waxing Crescent
Feb 6
First Quarter
Feb 14
Full
Feb 22
Last Quarter
Mar 1
New

Hourly Weather History & Observations

Time (CST) Temp. Windchill Dew Point Humidity Pressure Visibility Wind Dir Wind Speed Gust Speed Precip Events Conditions
12:35 AM 0.3 °F - -4.0 °F 82% 30.37 in 10.0 mi Calm Calm - N/A   Clear
1:55 AM -0.2 °F - -4.2 °F 83% 30.37 in 10.0 mi Calm Calm - N/A   Clear
2:15 AM 0.5 °F - -3.8 °F 82% 30.38 in 10.0 mi Calm Calm - N/A   Clear
2:35 AM 1.2 °F - -3.3 °F 81% 30.40 in 10.0 mi Calm Calm - N/A   Clear
2:55 AM 0.9 °F - -3.6 °F 81% 30.39 in 10.0 mi Calm Calm - N/A   Clear
3:15 AM 1.4 °F - -3.1 °F 81% 30.38 in 10.0 mi Calm Calm - N/A   Scattered Clouds
3:55 AM 2.1 °F - -1.8 °F 83% 30.38 in 10.0 mi Calm Calm - N/A   Mostly Cloudy
4:35 AM 2.7 °F -4.8 °F -1.3 °F 84% 30.38 in 10.0 mi NNW 3.5 mph - N/A   Scattered Clouds
4:55 AM 3.2 °F - -0.9 °F 83% 30.38 in 10.0 mi Calm Calm - N/A   Clear
5:15 AM 3.9 °F - -0.4 °F 82% 30.39 in 10.0 mi Calm Calm - N/A   Clear
5:35 AM 4.6 °F - -0.0 °F 81% 30.40 in 10.0 mi Calm Calm - N/A   Clear
5:55 AM 4.8 °F -4.3 °F 0.1 °F 81% 30.39 in 10.0 mi NNW 4.6 mph - N/A   Clear
6:15 AM 4.1 °F - -0.4 °F 82% 30.40 in 10.0 mi Calm Calm - N/A   Mostly Cloudy
6:35 AM 4.1 °F - -0.0 °F 83% 30.39 in 10.0 mi Calm Calm - N/A   Mostly Cloudy
6:55 AM 4.1 °F - -0.4 °F 82% 30.39 in 10.0 mi Calm Calm - N/A   Scattered Clouds
7:15 AM 4.6 °F -4.5 °F 0.3 °F 82% 30.38 in 10.0 mi NNW 4.6 mph - N/A   Clear
7:35 AM 4.8 °F - 0.5 °F 82% 30.39 in 10.0 mi Calm Calm - N/A   Scattered Clouds
7:55 AM 5.5 °F - 1.0 °F 82% 30.40 in 10.0 mi Calm Calm - N/A   Mostly Cloudy
8:15 AM 6.3 °F - 1.4 °F 80% 30.39 in 10.0 mi Calm Calm - N/A   Overcast
8:35 AM 7.3 °F - 2.1 °F 79% 30.40 in 10.0 mi Calm Calm - N/A   Scattered Clouds
9:15 AM 9.3 °F 2.8 °F 3.4 °F 77% 30.37 in 10.0 mi North 3.5 mph - N/A   Clear
9:35 AM 11.8 °F - 4.1 °F 71% 30.35 in 10.0 mi Calm Calm - N/A   Clear
9:55 AM 11.5 °F 3.5 °F 4.1 °F 72% 30.37 in 10.0 mi NNW 4.6 mph - N/A   Clear
10:15 AM 12.2 °F - 4.6 °F 72% 30.36 in 10.0 mi Calm Calm - N/A   Clear
10:55 AM 15.8 °F 5.1 °F 5.0 °F 62% 30.35 in 10.0 mi ENE 8.1 mph - N/A   Clear
11:15 AM 16.2 °F 9.0 °F 4.3 °F 60% 30.35 in 10.0 mi East 4.6 mph - N/A   Clear
11:35 AM 16.5 °F 8.1 °F 4.8 °F 60% 30.33 in 10.0 mi East 5.8 mph - N/A   Clear
11:55 AM 16.7 °F 9.6 °F 5.4 °F 61% 30.32 in 10.0 mi ENE 4.6 mph - N/A   Clear
12:15 PM 17.1 °F 10.0 °F 5.9 °F 62% 30.31 in 10.0 mi NE 4.6 mph - N/A   Mostly Cloudy
12:35 PM 18.0 °F 8.7 °F 5.2 °F 57% 30.29 in 10.0 mi ENE 6.9 mph - N/A   Scattered Clouds
12:55 PM 18.9 °F 9.8 °F 4.5 °F 54% 30.27 in 10.0 mi ENE 6.9 mph - N/A   Scattered Clouds
1:15 PM 19.0 °F 8.2 °F 3.7 °F 51% 30.27 in 10.0 mi East 9.2 mph - N/A   Clear
1:35 PM 19.0 °F 11.1 °F 4.5 °F 53% 30.27 in 10.0 mi East 5.8 mph - N/A   Scattered Clouds
1:55 PM 19.0 °F 13.9 °F 5.7 °F 56% 30.29 in 10.0 mi ENE 3.5 mph - N/A   Overcast
2:15 PM 19.0 °F 10.0 °F 6.4 °F 58% 30.27 in 10.0 mi East 6.9 mph - N/A   Overcast
2:35 PM 18.5 °F 10.4 °F 8.4 °F 65% 30.26 in 2.5 mi ENE 5.8 mph - N/A Snow Light Snow
2:55 PM 18.0 °F 5.4 °F 10.8 °F 73% 30.21 in 1.5 mi ENE 11.5 mph - N/A Snow Light Snow
3:15 PM 18.1 °F 5.6 °F 12.0 °F 77% 30.22 in 2.5 mi ENE 11.5 mph - N/A Snow Light Snow
3:35 PM 18.1 °F 7.9 °F 11.8 °F 76% 30.24 in 7.0 mi ENE 8.1 mph - N/A Snow Light Snow
3:55 PM 18.5 °F 7.5 °F 11.1 °F 73% 30.23 in 7.0 mi ENE 9.2 mph - N/A   Overcast
4:15 PM 19.0 °F 9.0 °F 10.4 °F 69% 30.23 in 10.0 mi ENE 8.1 mph - N/A Snow Light Snow
4:35 PM 18.5 °F 6.8 °F 11.7 °F 75% 30.21 in 4.0 mi East 10.4 mph - N/A Snow Light Snow
4:55 PM 18.1 °F 5.0 °F 14.2 °F 84% 30.16 in 0.8 mi ENE 12.7 mph - N/A Snow Snow
5:15 PM - - - N/A% 30.19 in 1.0 mi ENE 10.4 mph - N/A   Unknown
5:35 PM 18.9 °F 5.9 °F 15.8 °F 88% 30.18 in 2.0 mi ENE 12.7 mph - N/A Snow Light Snow
6:15 PM 19.4 °F 7.2 °F 16.5 °F 89% 30.15 in 2.5 mi ENE 11.5 mph 17.3 mph N/A Snow Light Snow
6:55 PM - - - N/A% 30.11 in 2.5 mi NNE 6.9 mph - N/A   Unknown
7:15 PM 19.4 °F 11.5 °F 16.7 °F 89% 30.13 in 1.8 mi NNE 5.8 mph - N/A Snow Light Snow
7:35 PM 19.8 °F 11.9 °F 17.1 °F 89% 30.14 in 2.5 mi North 5.8 mph - N/A Snow Light Snow